KATL

Atlanta/Hartsfield-Jackson International

Airport
ICAO code
KATL
IATA Code
ATL
Summary
ICAO Region
NAM
ICAO Territory
Location

Atlanta, Georgia

Serving
Atlanta
Elevation
1026 ft
Coordinates
33° 38' 25" N , 84° 25' 38" W
KCC
Airport LOS
Parallel Runway Operation
Metar
KATL 270720Z 16006KT 10SM BKN021 BKN028 BKN034 BKN180 BKN250 14/07 A3000 RMK AO2 T01390067

Description

Primary international airport serving Atlanta, Georgia, USA. The airport is located 10 nm south of the city centre.

SKYbrary Partners:

Safety knowledge contributed by: